TimeEET,TemperatureF,Dew PointF,Humidity,Sea Level PressureIn,VisibilityMPH,Wind Direction,Wind SpeedMPH,Gust SpeedMPH,PrecipitationIn,Events,Conditions,WindDirDegrees,DateUTC
12:20 AM,62.6,59.0,88,30.04,-9999.0,NE,5.8,-,N/A,,Clear,40,2012-11-06 22:20:00
12:50 AM,62.6,59.0,88,30.04,-9999.0,NNE,3.5,-,N/A,,Clear,30,2012-11-06 22:50:00
1:20 AM,62.6,57.2,82,30.04,-9999.0,Variable,2.3,-,N/A,,Clear,0,2012-11-06 23:20:00
1:50 AM,60.8,57.2,88,30.04,-9999.0,Variable,2.3,-,N/A,,Clear,0,2012-11-06 23:50:00
2:20 AM,62.6,57.2,82,30.04,-9999.0,NNW,3.5,-,N/A,,Clear,340,2012-11-07 00:20:00
2:50 AM,62.6,55.4,77,30.04,-9999.0,North,3.5,-,N/A,,Clear,10,2012-11-07 00:50:00
3:20 AM,60.8,55.4,82,30.01,-9999.0,Variable,2.3,-,N/A,,Clear,0,2012-11-07 01:20:00
3:50 AM,60.8,55.4,82,30.04,-9999.0,North,3.5,-,N/A,,Clear,360,2012-11-07 01:50:00
4:20 AM,60.8,55.4,82,30.04,-9999.0,North,3.5,-,N/A,,Clear,10,2012-11-07 02:20:00
4:50 AM,59.0,53.6,82,30.04,-9999.0,North,4.6,-,N/A,,Clear,10,2012-11-07 02:50:00
5:20 AM,59.0,53.6,82,30.04,-9999.0,NE,4.6,-,N/A,,Clear,50,2012-11-07 03:20:00
5:50 AM,59.0,55.4,88,30.04,-9999.0,Calm,Calm,-,N/A,,Clear,0,2012-11-07 03:50:00
6:20 AM,57.2,53.6,88,30.04,-9999.0,WSW,3.5,-,N/A,,Clear,250,2012-11-07 04:20:00
6:50 AM,57.2,53.6,88,30.04,-9999.0,Calm,Calm,-,N/A,,Clear,0,2012-11-07 04:50:00
7:20 AM,60.8,55.4,82,30.06,-9999.0,Variable,1.2,-,N/A,,Clear,0,2012-11-07 05:20:00
7:50 AM,64.4,59.0,83,30.06,-9999.0,Calm,Calm,-,N/A,,Clear,0,2012-11-07 05:50:00
8:20 AM,68.0,57.2,68,30.06,-9999.0,Variable,1.2,-,N/A,,Clear,0,2012-11-07 06:20:00
8:50 AM,71.6,57.2,60,30.06,-9999.0,NW,1.2,-,N/A,,Clear,320,2012-11-07 06:50:00
9:20 AM,73.4,55.4,53,30.06,-9999.0,Variable,2.3,-,N/A,,Clear,0,2012-11-07 07:20:00
9:50 AM,75.2,53.6,47,30.04,-9999.0,East,3.5,-,N/A,,Clear,80,2012-11-07 07:50:00
10:20 AM,75.2,53.6,47,30.04,-9999.0,Variable,2.3,-,N/A,,Clear,0,2012-11-07 08:20:00
10:50 AM,77.0,53.6,44,30.01,-9999.0,Variable,4.6,-,N/A,,Clear,0,2012-11-07 08:50:00
11:20 AM,77.0,53.6,44,30.01,-9999.0,Variable,2.3,-,N/A,,Clear,0,2012-11-07 09:20:00
11:50 AM,77.0,53.6,44,30.01,-9999.0,East,4.6,-,N/A,,Clear,90,2012-11-07 09:50:00
12:20 PM,78.8,55.4,44,29.98,-9999.0,SE,4.6,-,N/A,,Clear,140,2012-11-07 10:20:00
12:50 PM,78.8,53.6,42,29.98,-9999.0,SSE,5.8,-,N/A,,Clear,160,2012-11-07 10:50:00
1:20 PM,78.8,55.4,44,29.98,-9999.0,SE,3.5,-,N/A,,Clear,130,2012-11-07 11:20:00
1:50 PM,80.6,53.6,39,29.98,-9999.0,Variable,3.5,-,N/A,,Clear,0,2012-11-07 11:50:00
2:20 PM,78.8,53.6,42,29.98,6.2,SW,4.6,-,N/A,,Scattered Clouds,220,2012-11-07 12:20:00
2:50 PM,78.8,55.4,44,29.95,6.2,SW,5.8,-,N/A,,Scattered Clouds,230,2012-11-07 12:50:00
3:20 PM,77.0,57.2,50,29.95,6.2,SSW,9.2,-,N/A,,Mostly Cloudy,200,2012-11-07 13:20:00
3:50 PM,75.2,59.0,57,29.95,6.2,SSW,8.1,-,N/A,,Mostly Cloudy,210,2012-11-07 13:50:00
4:20 PM,71.6,59.0,64,29.95,6.2,SW,6.9,-,N/A,,Mostly Cloudy,220,2012-11-07 14:20:00
4:50 PM,69.8,62.6,78,29.95,6.2,SSW,5.8,-,N/A,,Mostly Cloudy,210,2012-11-07 14:50:00
5:20 PM,69.8,62.6,78,29.98,6.2,SSW,4.6,-,N/A,,Mostly Cloudy,210,2012-11-07 15:20:00
5:50 PM,68.0,62.6,83,29.98,6.2,WSW,4.6,-,N/A,,Mostly Cloudy,240,2012-11-07 15:50:00
6:20 PM,66.2,62.6,88,29.98,6.2,WSW,3.5,-,N/A,,Mostly Cloudy,240,2012-11-07 16:20:00
6:50 PM,66.2,60.8,83,29.98,6.2,Variable,2.3,-,N/A,,Mostly Cloudy,0,2012-11-07 16:50:00
7:20 PM,66.2,60.8,83,29.98,6.2,SE,1.2,-,N/A,,Scattered Clouds,130,2012-11-07 17:20:00
7:50 PM,64.4,60.8,88,29.98,6.2,Variable,1.2,-,N/A,,Scattered Clouds,0,2012-11-07 17:50:00
8:20 PM,64.4,59.0,83,29.98,6.2,ESE,2.3,-,N/A,,Scattered Clouds,120,2012-11-07 18:20:00
8:50 PM,64.4,60.8,88,29.98,6.2,ESE,2.3,-,N/A,,Scattered Clouds,110,2012-11-07 18:50:00
9:20 PM,62.6,59.0,88,29.98,6.2,ESE,3.5,-,N/A,,Scattered Clouds,110,2012-11-07 19:20:00
9:50 PM,64.4,60.8,88,29.98,6.2,East,3.5,-,N/A,,Scattered Clouds,90,2012-11-07 19:50:00
10:20 PM,64.4,60.8,88,29.98,6.2,Variable,1.2,-,N/A,,Scattered Clouds,0,2012-11-07 20:20:00
10:50 PM,62.6,59.0,88,29.98,6.2,NE,2.3,-,N/A,,Scattered Clouds,50,2012-11-07 20:50:00
11:20 PM,64.4,60.8,88,29.98,6.2,NE,3.5,-,N/A,,Scattered Clouds,40,2012-11-07 21:20:00
11:50 PM,62.6,60.8,94,29.95,6.2,North,3.5,-,N/A,,Scattered Clouds,360,2012-11-07 21:50:00